Flag for Canada Weather past 2 weeks in Kamloops, British Columbia, Canada

Now
41 °F

Passing clouds.


Feels Like: 35 °F
Forecast: 33 / 45 °F
Wind: 10 mph from East

Location: Kamloops

Current Time: Jan 25, 2015 at 5:26:20 PM

Latest Report: Jan 25, 2015 at 5:00 PM


Visibility: 40 mi

Pressure: 30.14 "Hg

Humidity: 81%

Dew point: 36 °F

Location of KamloopsLocation

Historic Weather in Kamloops — Graph

°F

Kamloops temperature yesterday

Maximum temperature yesterday: 37 °F (at 3:00 PM)
Minimum temperature yesterday: 34 °F (at 1:00 AM)
Average temperature yesterday: 36 °F

Past Weeks' High & Low Weather Summary

 TemperatureHumidityPressure
High45 °F (Jan 18, 5:00 PM)100% (Jan 18, 1:56 AM)30.61 "Hg (Jan 18, 1:56 AM)
Low21 °F (Jan 20, 5:02 AM)57% (Jan 18, 5:00 PM)29.60 "Hg (Jan 18, 6:00 AM)
Average33 °F82%30.27 "Hg
* Reported Jan 10 4:00 PM — Jan 25 4:00 PM, Kamloops, Weather by CustomWeather, © 2014

Note: Actual official high and low records may vary slightly from our data, if they occured in-between our weather recording intervals... More about our weather records

Advertising

Kamloops weather history for previous 24 hours

 ConditionsComfort  
Time TempWeatherWind HumidityBarometerVisibility
4:00 PM
Jan 25
43 °FScattered clouds.13 mph76%30.13 "Hg40 mi
3:00 PM43 °FScattered clouds.12 mph76%30.11 "Hg40 mi
2:00 PM43 °FScattered clouds.13 mph76%30.11 "Hg40 mi
1:00 PM43 °FBroken clouds.13 mph76%30.12 "Hg40 mi
12:00 PM43 °FBroken clouds.9 mph76%30.13 "Hg30 mi
11:00 AM39 °FBroken clouds.3 mph87%30.14 "Hg30 mi
10:00 AM37 °FScattered clouds.6 mph87%30.15 "Hg30 mi
9:47 AM39 °FBroken clouds.6 mph81%30.14 "Hg30 mi
9:00 AM37 °FPartly sunny.7 mph87%30.14 "Hg30 mi
8:55 AM37 °FPartly sunny.6 mph87%30.15 "Hg30 mi
8:00 AM37 °FBroken clouds.6 mph87%30.14 "Hg30 mi
7:00 AM37 °FPassing clouds.6 mph87%30.14 "Hg30 mi
6:00 AM37 °FMostly cloudy.6 mph87%30.14 "Hg30 mi
5:00 AM37 °FPassing clouds.9 mph87%30.12 "Hg30 mi
4:00 AM36 °FPassing clouds.13 mph93%30.11 "Hg40 mi
3:00 AM37 °FPartly cloudy.9 mph87%30.13 "Hg30 mi
2:00 AM37 °FPartly cloudy.10 mph87%30.14 "Hg30 mi
1:00 AM39 °FPartly cloudy.10 mph81%30.13 "Hg30 mi
12:00 AM37 °FMostly cloudy.12 mph87%30.12 "Hg30 mi
11:51 PM
Jan 24
37 °FMostly cloudy.16 mph87%30.11 "Hg30 mi
11:00 PM37 °FPassing clouds.13 mph87%30.12 "Hg30 mi
10:00 PM37 °FPassing clouds.14 mph87%30.11 "Hg20 mi
9:00 PM37 °FMostly cloudy.13 mph87%30.12 "Hg20 mi
8:00 PM37 °FMostly cloudy.12 mph87%30.14 "Hg20 mi
7:00 PM37 °FMostly cloudy.13 mph87%30.17 "Hg20 mi
6:00 PM37 °FMostly cloudy.10 mph87%30.19 "Hg20 mi
5:00 PM37 °FMostly cloudy.7 mph87%30.21 "Hg15 mi
Weather by CustomWeather, © 2014

See weather overviewHow to use our weather pages